Weather History for Boise, ID

Change the Weather History Date:

Monday, July 28, 2014

  Actual Average Record
Temperature  
Mean Temperature 85 °F 78 °F  
Max Temperature 100 °F 93 °F 106 °F (1934)
Min Temperature 70 °F 62 °F 45 °F (1948)
Degree Days  
Heating Degree Days 0 0  
Month to date heating degree days 0 4  
Since 1 June heating degree days 36 68  
Since 1 July heating degree days 0 4  
Cooling Degree Days 20 13  
Month to date cooling degree days 446 304  
Year to date cooling degree days 582 487  
Since 1 June cooling degree days 558 443  
Growing Degree Days 34 (Base 50)    
Moisture  
Dew Point 42 °F    
Average Humidity 26    
Maximum Humidity 38    
Minimum Humidity 13    
Precipitation  
Precipitation 0.00 in 0.01 in 0.12 in (1984)
Month to date precipitation 0.08 0.30  
Year to date precipitation 8.45 7.23  
Snow  
Snow 0.00 in 0.00 in 0.00 in (2006)
Month to date snowfall 0.0 0.0  
Since 1 July snowfall 0.0 0.0  
Snow Depth 0.00 in    
Sea Level Pressure  
Sea Level Pressure 29.94 in    
Wind  
Wind Speed 7 mph (South)    
Max Wind Speed 17 mph    
Max Gust Speed 24 mph    
Visibility 10 miles    
Events      
T = Trace of Precipitation, MM = Missing Value Source: NWS Daily Summary

Daily Weather History Graph

Daily Weather History Graph

Search for Another Location

Airport:

Trip Planner

Search our weather history database for the weather conditions in past years. The results will help you decide how hot, cold, wet, or windy it might be!

Date:

Astronomy

Jul. 28, 2014 Rise Set
Actual Time 6:30 AM MDT 9:12 PM MDT
Civil Twilight 5:57 AM MDT 9:45 PM MDT
Nautical Twilight 5:15 AM MDT 10:26 PM MDT
Astronomical Twilight 4:27 AM MDT 11:14 PM MDT
Moon 8:20 AM MDT (7/28) 9:50 PM MDT (7/28)
Length of Visible Light 15h 48m
Length of Day
14h 41m
Waxing Crescent, 3% of the Moon is Illuminated
Jul 28
Waxing Crescent
Aug 3
First Quarter
Aug 10
Full
Aug 17
Last Quarter
Aug 25
New

Hourly Weather History & Observations

Time (MDT) Temp. Dew Point Humidity Pressure Visibility Wind Dir Wind Speed Gust Speed Precip Events Conditions
12:53 AM 80.1 °F 45.0 °F 29% 29.90 in 10.0 mi South 4.6 mph - N/A   Clear
1:53 AM 79.0 °F 39.9 °F 25% 29.91 in 10.0 mi SSE 4.6 mph - N/A   Clear
2:53 AM 79.0 °F 36.0 °F 21% 29.90 in 10.0 mi SE 10.4 mph - N/A   Clear
3:53 AM 79.0 °F 36.0 °F 21% 29.91 in 10.0 mi SSE 4.6 mph - N/A   Clear
4:53 AM 73.9 °F 39.0 °F 28% 29.92 in 10.0 mi SSW 4.6 mph - N/A   Clear
5:53 AM 71.1 °F 42.1 °F 35% 29.93 in 10.0 mi Calm Calm - N/A   Clear
6:53 AM 70.0 °F 43.0 °F 38% 29.94 in 10.0 mi SW 3.5 mph - N/A   Clear
7:53 AM 71.6 °F 44.6 °F 38% 30.06 in 10.0 mi Calm Calm - N/A   Clear
8:53 AM 73.9 °F 45.0 °F 35% 29.96 in 10.0 mi Calm Calm - N/A   Clear
9:53 AM 77.0 °F 46.0 °F 33% 29.97 in 10.0 mi West 3.5 mph - N/A   Clear
10:53 AM 82.9 °F 42.1 °F 24% 29.98 in 10.0 mi Variable 3.5 mph - N/A   Clear
11:53 AM 89.1 °F 39.9 °F 18% 29.99 in 10.0 mi SSE 12.7 mph 18.4 mph N/A   Clear
12:53 PM 93.2 °F 37.4 °F 14% 30.08 in 10.0 mi South 11.5 mph 16.1 mph N/A   Clear
1:53 PM 97.0 °F 37.9 °F 13% 29.96 in 10.0 mi SW 8.1 mph - N/A   Clear
2:53 PM 99.0 °F 39.9 °F 13% 29.94 in 10.0 mi South 12.7 mph 20.7 mph N/A   Clear
3:53 PM 98.6 °F 41.0 °F 14% 30.04 in 10.0 mi South 11.5 mph - N/A   Clear
4:53 PM 100.0 °F 41.0 °F 13% 29.91 in 10.0 mi South 15.0 mph 18.4 mph N/A   Clear
5:53 PM 98.1 °F 41.0 °F 14% 29.90 in 10.0 mi Variable 4.6 mph - N/A   Clear
6:53 PM 98.1 °F 41.0 °F 14% 29.89 in 10.0 mi SW 5.8 mph - N/A   Clear
7:53 PM 97.0 °F 43.0 °F 16% 29.89 in 10.0 mi SW 8.1 mph - N/A   Clear
8:53 PM 91.0 °F 42.1 °F 18% 29.91 in 10.0 mi SSW 3.5 mph - N/A   Clear
9:53 PM 89.1 °F 46.0 °F 22% 29.94 in 10.0 mi East 12.7 mph - N/A   Clear
10:53 PM 88.0 °F 46.0 °F 23% 29.94 in 10.0 mi East 11.5 mph - N/A   Clear
11:53 PM 84.0 °F 48.0 °F 28% 29.93 in 10.0 mi ESE 8.1 mph - N/A   Clear